SL-16 DEB

Satellite information

Favourite Embed

Satellite Type and Status

DEBRISIN ORBIT

Key statistics

Satellite SL-16 DEB at a glance.

Uptime

12042

Days in orbit

Revolutions

≈ 14.4

Per day

Orbit

LEO

Low Earth Orbit

Inclination

71.2

Latest

Satellite identification and parameters

Extended collection of information and parameters for SL-16 DEB.

Object identification

Identified? True

Debris? True

Object name: SL-16 DEB

International designator: 1992-093JM

Object number (NORAD): 27750

Object ID (CCSDS): 27750

Country: COMMONWEALTH OF INDEPENDENT STATES (CIS)

Current information (Y/N): Y

RCS size: SMALL

Orbital parameters

Period: 100.153 minutes

Inclination: 71.1521 deg

SMA: 7143.921 km

Apoapsis: 821.644 km

Periapsis: 709.927 km

RAAN: 129.1465 deg

Eccentricy: 0.00781902

Argument of periapsis: 198.9708 deg

Mean anomaly: 160.8512 deg

Mean motion: 14.37797808 rev/day

Mean motion (dot): 0.00010065 rev/day2

B* drag term: 0.0032344687 1/REarth

Two-line elements (TLE)

Creation date: Dec. 12, 2025, 10:14 a.m.

Reference frame: TEME

Reference center: EARTH

Epoch: Dec. 12, 2025, 1:26 a.m. UTC

TLE line 0: 0 SL-16 DEB

TLE line 1: 1 27750U 92093JM 25346.06034355 .00010065 00000-0 32345-2 0 9991

TLE line 2: 2 27750 71.1521 129.1465 0078190 198.9708 160.8512 14.37797808644950

Live tracking on map

Real-time ground track for satellite SL-16 DEB.

In-orbit conjunctions

A list of the most updated potential collisions computed for object SL-16 DEB.

Target Orbit TCA Probability of collision Miss distance Type
SL-8 R/B LEO 2025-11-17 20:57:23 0.0001485108 345.0 (m) ROCKET BODY
SACI 1 SSO 2025-04-12 20:43:41 0.0001300995 215.0 (m) PAYLOAD
THORAD AGENA D DEB SSO 2024-09-25 22:17:31 0.0005774565 20.0 (m) DEBRIS

Associated space launch

Second generation ELING satellite

SL-16 DEB was lifted into orbit during the mission ‘Zenit-2 | Tselina-2 12’, on board a Zenit-2 space rocket.

The launch took place on Dec. 25, 1992, 5:56 a.m. from 45/1.

For more information about the launch, click the button.

Launch to space Zenit-2 | Tselina-2 12
Zenit-2 | Tselina-2 12

Agency: N/A

Status: Launch Successful

Launch date: Dec. 25, 1992, 5:56 a.m. UTC

Rocket: Zenit-2

Launch pad: 45/1

Location: Baikonur Cosmodrome, Republic of Kazakhstan

...

Latest news about this satellite

There are no fresh news available about this satellite. Check back as we update our databases every day.


Newsletter sign-up

Weekly statistics, charts and insights to help you stay on top of the space industry.